Location: Karlskoga
(59.3269°N, 14.5116°E)
Time: 21:07:05
(UTC+01:00)

ISS - Visible Passes

Search period start: 27 February 2021 00:00
Search period end: 09 March 2021 00:00
Orbit: 417 x 422 km, 51.6° (Epoch: 27 February)

Date Brightness Start Highest point End Pass type
(mag) Time Alt. Az. Time Alt. Az. Time Alt. Az.
27 Feb -1.4 04:52:06 13° S 04:53:14 15° SSE 04:55:15 10° ESE visible
28 Feb -1.0 04:06:30 12° SE 04:06:30 12° SE 04:07:30 10° SE visible
28 Feb -1.8 05:39:28 11° SW 05:42:00 21° S 05:44:39 10° ESE visible
01 Mar -1.9 04:53:50 18° S 04:54:43 20° SSE 04:57:15 10° ESE visible
02 Mar -1.4 04:08:10 17° SSE 04:08:10 17° SSE 04:09:46 10° ESE visible
02 Mar -2.0 05:41:07 11° SW 05:43:31 22° S 05:46:13 10° SE visible
03 Mar -2.1 04:55:26 20° SSW 04:56:13 22° S 04:58:54 10° SE visible
04 Mar -1.7 04:09:45 19° SSE 04:09:45 19° SSE 04:11:33 10° ESE visible
04 Mar -1.9 05:42:42 11° WSW 05:45:01 19° SSW 05:47:31 10° SE visible
05 Mar -0.7 03:24:05 10° ESE 03:24:05 10° ESE 03:24:08 10° ESE visible
05 Mar -2.1 04:57:02 20° SSW 04:57:42 21° S 05:00:20 10° SE visible
06 Mar -1.8 04:11:23 19° SSE 04:11:23 19° SSE 04:13:05 10° SE visible
06 Mar -1.6 05:44:30 10° WSW 05:46:26 14° SSW 05:48:21 10° SSE visible
07 Mar -0.8 03:25:45 10° SE 03:25:45 10° SE 03:25:45 10° SE visible
07 Mar -1.9 04:58:43 17° SSW 04:59:10 17° SSW 05:01:26 10° SSE visible
08 Mar -1.6 04:13:08 16° SSE 04:13:08 16° SSE 04:14:21 10° SE visible
